Year,Month,Day,Hour,Minute,Value (Times are PST for windspeed in km/hr)
2016,08,23,00,00,7.30
2016,08,23,00,01,6.60
2016,08,23,00,02,8.20
2016,08,23,00,03,6.40
2016,08,23,00,04,5.90
2016,08,23,00,05,5.40
2016,08,23,00,06,6.00
2016,08,23,00,07,4.80
2016,08,23,00,08,6.10
2016,08,23,00,09,4.70
2016,08,23,00,10,5.10
2016,08,23,00,11,5.40
2016,08,23,00,12,5.20
2016,08,23,00,13,6.30
2016,08,23,00,14,5.30
2016,08,23,00,15,5.80
2016,08,23,00,16,6.90
2016,08,23,00,17,6.40
2016,08,23,00,18,7.00
2016,08,23,00,19,5.30
2016,08,23,00,20,6.30
2016,08,23,00,21,5.50
2016,08,23,00,22,5.50
2016,08,23,00,23,4.40
2016,08,23,00,24,5.10
2016,08,23,00,25,5.00
2016,08,23,00,26,5.40
2016,08,23,00,27,6.30
2016,08,23,00,28,5.30
2016,08,23,00,29,5.40
2016,08,23,00,30,6.40
2016,08,23,00,31,5.70
2016,08,23,00,32,5.10
2016,08,23,00,33,4.40
2016,08,23,00,34,4.30
2016,08,23,00,35,4.80
2016,08,23,00,36,4.50
2016,08,23,00,37,4.60
2016,08,23,00,38,5.60
2016,08,23,00,39,6.50
2016,08,23,00,40,5.90
2016,08,23,00,41,5.20
2016,08,23,00,42,4.60
2016,08,23,00,43,3.80
2016,08,23,00,44,5.30
2016,08,23,00,45,6.30
2016,08,23,00,46,6.70
2016,08,23,00,47,7.40
2016,08,23,00,48,7.10
2016,08,23,00,49,6.10
2016,08,23,00,50,4.90
2016,08,23,00,51,5.60
2016,08,23,00,52,6.70
2016,08,23,00,53,6.30
2016,08,23,00,54,6.00
2016,08,23,00,55,6.00
2016,08,23,00,56,6.90
2016,08,23,00,57,6.30
2016,08,23,00,58,6.00
2016,08,23,00,59,4.80
2016,08,23,01,00,4.80
2016,08,23,01,01,5.50
2016,08,23,01,02,5.50
2016,08,23,01,03,4.60
2016,08,23,01,04,5.90
2016,08,23,01,05,5.10
2016,08,23,01,06,4.30
2016,08,23,01,07,4.00
2016,08,23,01,08,2.70
2016,08,23,01,09,3.00
2016,08,23,01,10,3.50
2016,08,23,01,11,2.90
2016,08,23,01,12,3.50
2016,08,23,01,13,4.00
2016,08,23,01,14,4.80
2016,08,23,01,15,4.30
2016,08,23,01,16,6.60
2016,08,23,01,17,6.60
2016,08,23,01,18,4.80
2016,08,23,01,19,4.20
2016,08,23,01,20,4.60
2016,08,23,01,21,5.70
2016,08,23,01,22,6.90
2016,08,23,01,23,7.20
2016,08,23,01,24,6.40
2016,08,23,01,25,6.00
2016,08,23,01,26,6.00
2016,08,23,01,27,4.50
2016,08,23,01,28,4.80
2016,08,23,01,29,5.60
2016,08,23,01,30,5.40
2016,08,23,01,31,5.10
2016,08,23,01,32,4.10
2016,08,23,01,33,5.20
2016,08,23,01,34,6.80
2016,08,23,01,35,5.70
2016,08,23,01,36,5.80
2016,08,23,01,37,5.60
2016,08,23,01,38,5.40
2016,08,23,01,39,6.30
2016,08,23,01,40,6.60
2016,08,23,01,41,5.50
2016,08,23,01,42,5.20
2016,08,23,01,43,4.50
2016,08,23,01,44,3.60
2016,08,23,01,45,3.80
2016,08,23,01,46,6.50
2016,08,23,01,47,5.30
2016,08,23,01,48,4.90
2016,08,23,01,49,5.00
2016,08,23,01,50,4.30
2016,08,23,01,51,3.30
2016,08,23,01,52,1.40
2016,08,23,01,53,0.00
2016,08,23,01,54,0.00
2016,08,23,01,55,3.60
2016,08,23,01,56,4.10
2016,08,23,01,57,4.40
2016,08,23,01,58,5.60
2016,08,23,01,59,5.50
2016,08,23,02,00,5.60
2016,08,23,02,01,5.80
2016,08,23,02,02,5.20
2016,08,23,02,03,4.10
2016,08,23,02,04,5.20
2016,08,23,02,05,6.20
2016,08,23,02,06,4.50
2016,08,23,02,07,4.80
2016,08,23,02,08,6.10
2016,08,23,02,09,4.90
2016,08,23,02,10,6.70
2016,08,23,02,11,6.30
2016,08,23,02,12,5.60
2016,08,23,02,13,5.50
2016,08,23,02,14,4.80
2016,08,23,02,15,6.60
2016,08,23,02,16,7.00
2016,08,23,02,17,6.90
2016,08,23,02,18,6.40
2016,08,23,02,19,5.50
2016,08,23,02,20,5.10
2016,08,23,02,21,5.20
2016,08,23,02,22,4.90
2016,08,23,02,23,5.70
2016,08,23,02,24,6.50
2016,08,23,02,25,5.70
2016,08,23,02,26,6.30
2016,08,23,02,27,5.40
2016,08,23,02,28,5.00
2016,08,23,02,29,6.90
2016,08,23,02,30,6.00
2016,08,23,02,31,3.40
2016,08,23,02,32,4.80
2016,08,23,02,33,5.00
2016,08,23,02,34,6.30
2016,08,23,02,35,8.60
2016,08,23,02,36,7.80
2016,08,23,02,37,7.30
2016,08,23,02,38,5.70
2016,08,23,02,39,5.70
2016,08,23,02,40,7.50
2016,08,23,02,41,7.40
2016,08,23,02,42,9.30
2016,08,23,02,43,9.10
2016,08,23,02,44,10.10
2016,08,23,02,45,10.00
2016,08,23,02,46,8.00
2016,08,23,02,47,10.20
2016,08,23,02,48,8.90
2016,08,23,02,49,10.40
2016,08,23,02,50,11.30
2016,08,23,02,51,8.60
2016,08,23,02,52,9.10
2016,08,23,02,53,9.80
2016,08,23,02,54,11.30
2016,08,23,02,55,10.10
2016,08,23,02,56,9.00
2016,08,23,02,57,8.00
2016,08,23,02,58,9.10
2016,08,23,02,59,7.20
2016,08,23,03,00,6.90
2016,08,23,03,01,6.50
2016,08,23,03,02,8.40
2016,08,23,03,03,8.60
2016,08,23,03,04,8.50
2016,08,23,03,05,9.10
2016,08,23,03,06,8.90
2016,08,23,03,07,6.30
2016,08,23,03,08,7.80
2016,08,23,03,09,6.90
2016,08,23,03,10,7.60
2016,08,23,03,11,9.00
2016,08,23,03,12,9.80
2016,08,23,03,13,8.90
2016,08,23,03,14,6.30
2016,08,23,03,15,7.90
2016,08,23,03,16,8.90
2016,08,23,03,17,7.90
2016,08,23,03,18,5.50
2016,08,23,03,19,6.00
2016,08,23,03,20,7.00
2016,08,23,03,21,5.90
2016,08,23,03,22,4.30
2016,08,23,03,23,4.90
2016,08,23,03,24,4.90
2016,08,23,03,25,4.30
2016,08,23,03,26,5.20
2016,08,23,03,27,6.30
2016,08,23,03,28,8.60
2016,08,23,03,29,6.70
2016,08,23,03,30,6.50
2016,08,23,03,31,6.70
2016,08,23,03,32,5.80
2016,08,23,03,33,7.80
2016,08,23,03,34,8.00
2016,08,23,03,35,6.00
2016,08,23,03,36,6.70
2016,08,23,03,37,7.20
2016,08,23,03,38,7.90
2016,08,23,03,39,8.60
2016,08,23,03,40,8.20
2016,08,23,03,41,7.20
2016,08,23,03,42,7.80
2016,08,23,03,43,8.60
2016,08,23,03,44,7.70
2016,08,23,03,45,8.80
2016,08,23,03,46,8.10
2016,08,23,03,47,8.90
2016,08,23,03,48,6.60
2016,08,23,03,49,9.00
2016,08,23,03,50,6.90
2016,08,23,03,51,6.40
2016,08,23,03,52,5.90
2016,08,23,03,53,7.00
2016,08,23,03,54,7.30
2016,08,23,03,55,7.40
2016,08,23,03,56,5.40
2016,08,23,03,57,5.10
2016,08,23,03,58,4.40
2016,08,23,03,59,5.10
2016,08,23,04,00,6.00
2016,08,23,04,01,5.30
2016,08,23,04,02,5.50
2016,08,23,04,03,7.10
2016,08,23,04,04,7.00
2016,08,23,04,05,5.50
2016,08,23,04,06,7.50
2016,08,23,04,07,6.70
2016,08,23,04,08,9.10
2016,08,23,04,09,7.40
2016,08,23,04,10,9.20
2016,08,23,04,11,9.70
2016,08,23,04,12,8.30
2016,08,23,04,13,8.10
2016,08,23,04,14,6.50
2016,08,23,04,15,7.50
2016,08,23,04,16,8.90
2016,08,23,04,17,9.20
2016,08,23,04,18,7.30
2016,08,23,04,19,10.50
2016,08,23,04,20,9.20
2016,08,23,04,21,8.60
2016,08,23,04,22,10.40
2016,08,23,04,23,10.00
2016,08,23,04,24,9.40
2016,08,23,04,25,6.00
2016,08,23,04,26,7.20
2016,08,23,04,27,7.30
2016,08,23,04,28,9.20
2016,08,23,04,29,9.80
2016,08,23,04,30,9.40
2016,08,23,04,31,8.50
2016,08,23,04,32,7.30
2016,08,23,04,33,8.20
2016,08,23,04,34,8.00
2016,08,23,04,35,7.80
2016,08,23,04,36,6.60
2016,08,23,04,37,7.30
2016,08,23,04,38,8.60
2016,08,23,04,39,6.70
2016,08,23,04,40,6.60
2016,08,23,04,41,7.30
2016,08,23,04,42,6.70
2016,08,23,04,43,9.90
2016,08,23,04,44,10.70
2016,08,23,04,45,11.10
2016,08,23,04,46,9.70
2016,08,23,04,47,10.00
2016,08,23,04,48,8.90
2016,08,23,04,49,8.80
2016,08,23,04,50,8.30
2016,08,23,04,51,9.20
2016,08,23,04,52,7.70
2016,08,23,04,53,9.40
2016,08,23,04,54,7.70
2016,08,23,04,55,8.30
2016,08,23,04,56,11.70
2016,08,23,04,57,11.10
2016,08,23,04,58,11.70
2016,08,23,04,59,13.40
2016,08,23,05,00,11.60
2016,08,23,05,01,10.30
2016,08,23,05,02,9.80
2016,08,23,05,03,9.80
2016,08,23,05,04,9.80
2016,08,23,05,05,7.90
2016,08,23,05,06,8.30
2016,08,23,05,07,8.90
2016,08,23,05,08,7.20
2016,08,23,05,09,7.20
2016,08,23,05,10,7.30
2016,08,23,05,11,6.60
2016,08,23,05,12,6.90
2016,08,23,05,13,8.30
2016,08,23,05,14,7.30
2016,08,23,05,15,10.00
2016,08,23,05,16,9.60
2016,08,23,05,17,10.40
2016,08,23,05,18,6.00
2016,08,23,05,19,7.70
2016,08,23,05,20,8.50
2016,08,23,05,21,7.60
2016,08,23,05,22,8.90
2016,08,23,05,23,9.20
2016,08,23,05,24,9.70
2016,08,23,05,25,7.20
2016,08,23,05,26,8.30
2016,08,23,05,27,9.30
2016,08,23,05,28,9.80
2016,08,23,05,29,8.90
2016,08,23,05,30,7.60
2016,08,23,05,31,7.50
2016,08,23,05,32,7.70
2016,08,23,05,33,10.00
2016,08,23,05,34,8.30
2016,08,23,05,35,9.20
2016,08,23,05,36,9.10
2016,08,23,05,37,8.70
2016,08,23,05,38,6.70
2016,08,23,05,39,5.20
2016,08,23,05,40,7.60
2016,08,23,05,41,7.90
2016,08,23,05,42,8.30
2016,08,23,05,43,8.90
2016,08,23,05,44,9.20
2016,08,23,05,45,7.50
2016,08,23,05,46,7.50
2016,08,23,05,47,8.30
2016,08,23,05,48,7.60
2016,08,23,05,49,9.70
2016,08,23,05,50,11.80
2016,08,23,05,51,9.40
2016,08,23,05,52,9.40
2016,08,23,05,53,9.30
2016,08,23,05,54,9.20
2016,08,23,05,55,10.30
2016,08,23,05,56,9.80
2016,08,23,05,57,8.90
2016,08,23,05,58,8.10
2016,08,23,05,59,10.10
2016,08,23,06,00,10.50
2016,08,23,06,01,9.40
2016,08,23,06,02,10.00
2016,08,23,06,03,10.10
2016,08,23,06,04,9.20
2016,08,23,06,05,7.70
2016,08,23,06,06,9.90
2016,08,23,06,07,7.00
2016,08,23,06,08,8.20
2016,08,23,06,09,9.70
2016,08,23,06,10,10.90
2016,08,23,06,11,9.90
2016,08,23,06,12,10.10
2016,08,23,06,13,9.10
2016,08,23,06,14,9.50
2016,08,23,06,15,7.80
2016,08,23,06,16,8.90
2016,08,23,06,17,11.00
2016,08,23,06,18,11.30
2016,08,23,06,19,10.50
2016,08,23,06,20,10.80
2016,08,23,06,21,11.20
2016,08,23,06,22,11.10
2016,08,23,06,23,10.60
2016,08,23,06,24,9.30
2016,08,23,06,25,8.90
2016,08,23,06,26,8.90
2016,08,23,06,27,7.40
2016,08,23,06,28,8.50
2016,08,23,06,29,9.30
2016,08,23,06,30,7.40
2016,08,23,06,31,9.10
2016,08,23,06,32,7.40
2016,08,23,06,33,7.60
2016,08,23,06,34,7.70
2016,08,23,06,35,7.70
2016,08,23,06,36,7.60
2016,08,23,06,37,7.60
2016,08,23,06,38,6.00
2016,08,23,06,39,7.90
2016,08,23,06,40,7.60
2016,08,23,06,41,6.40
2016,08,23,06,42,7.70
2016,08,23,06,43,6.60
2016,08,23,06,44,6.80
2016,08,23,06,45,5.00
2016,08,23,06,46,6.80
2016,08,23,06,47,5.40
2016,08,23,06,48,6.30
2016,08,23,06,49,5.80
2016,08,23,06,50,7.40
2016,08,23,06,51,7.20
2016,08,23,06,52,6.70
2016,08,23,06,53,6.70
2016,08,23,06,54,8.50
2016,08,23,06,55,9.20
2016,08,23,06,56,9.70
2016,08,23,06,57,8.70
2016,08,23,06,58,8.90
2016,08,23,06,59,10.90
2016,08,23,07,00,9.10
2016,08,23,07,01,7.50
2016,08,23,07,02,6.70
2016,08,23,07,03,7.50
2016,08,23,07,04,7.00
2016,08,23,07,05,9.30
2016,08,23,07,06,8.20
2016,08,23,07,07,6.90
2016,08,23,07,08,7.80
2016,08,23,07,09,9.20
2016,08,23,07,10,8.80
2016,08,23,07,11,8.80
2016,08,23,07,12,10.10
2016,08,23,07,13,9.60
2016,08,23,07,14,7.00
2016,08,23,07,15,8.60
2016,08,23,07,16,10.00
2016,08,23,07,17,9.40
2016,08,23,07,18,7.80
2016,08,23,07,19,8.70
2016,08,23,07,20,7.80
2016,08,23,07,21,8.30
2016,08,23,07,22,9.20
2016,08,23,07,23,9.50
2016,08,23,07,24,8.50
2016,08,23,07,25,9.50
2016,08,23,07,26,9.20
2016,08,23,07,27,7.40
2016,08,23,07,28,8.10
2016,08,23,07,29,8.30
2016,08,23,07,30,8.90
2016,08,23,07,31,11.60
2016,08,23,07,32,9.50
2016,08,23,07,33,10.70
2016,08,23,07,34,9.70
2016,08,23,07,35,8.80
2016,08,23,07,36,9.30
2016,08,23,07,37,11.10
2016,08,23,07,38,11.60
2016,08,23,07,39,16.20
2016,08,23,07,40,13.10
2016,08,23,07,41,12.80
2016,08,23,07,42,13.50
2016,08,23,07,43,16.00
2016,08,23,07,44,16.40
2016,08,23,07,45,12.80
2016,08,23,07,46,15.70
2016,08,23,07,47,13.80
2016,08,23,07,48,17.20
2016,08,23,07,49,14.20
2016,08,23,07,50,10.90
2016,08,23,07,51,14.70
2016,08,23,07,52,16.20
2016,08,23,07,53,12.80
2016,08,23,07,54,13.90
2016,08,23,07,55,13.10
2016,08,23,07,56,18.80
2016,08,23,07,57,16.60
2016,08,23,07,58,16.00
2016,08,23,07,59,15.30
2016,08,23,08,00,14.30
2016,08,23,08,01,13.70
2016,08,23,08,02,15.90
2016,08,23,08,03,12.60
2016,08,23,08,04,14.90
2016,08,23,08,05,10.40
2016,08,23,08,06,11.00
2016,08,23,08,07,12.50
2016,08,23,08,08,11.50
2016,08,23,08,09,18.40
2016,08,23,08,10,17.20
2016,08,23,08,11,15.80
2016,08,23,08,12,18.20
2016,08,23,08,13,15.10
2016,08,23,08,14,17.00
2016,08,23,08,15,15.20
2016,08,23,08,16,17.10
2016,08,23,08,17,16.60
2016,08,23,08,18,14.90
2016,08,23,08,19,16.20
2016,08,23,08,20,17.50
2016,08,23,08,21,18.10
2016,08,23,08,22,18.10
2016,08,23,08,23,21.20
2016,08,23,08,24,15.40
2016,08,23,08,25,13.70
2016,08,23,08,26,14.50
2016,08,23,08,27,17.40
2016,08,23,08,28,18.90
2016,08,23,08,29,17.20
2016,08,23,08,30,15.40
2016,08,23,08,31,18.10
2016,08,23,08,32,18.70
2016,08,23,08,33,18.50
2016,08,23,08,34,17.00
2016,08,23,08,35,16.70
2016,08,23,08,36,15.70
2016,08,23,08,37,15.90
2016,08,23,08,38,19.70
2016,08,23,08,39,16.40
2016,08,23,08,40,14.30
2016,08,23,08,41,10.30
2016,08,23,08,42,11.50
2016,08,23,08,43,9.50
2016,08,23,08,44,14.20
2016,08,23,08,45,11.00
2016,08,23,08,46,18.60
2016,08,23,08,47,13.70
2016,08,23,08,48,12.10
2016,08,23,08,49,14.40
2016,08,23,08,50,13.20
2016,08,23,08,51,14.50
2016,08,23,08,52,13.10
2016,08,23,08,53,15.80
2016,08,23,08,54,16.90
2016,08,23,08,55,14.70
2016,08,23,08,56,17.50
2016,08,23,08,57,12.70
2016,08,23,08,58,12.60
2016,08,23,08,59,21.00
2016,08,23,09,00,18.20
2016,08,23,09,01,19.50
2016,08,23,09,02,18.50
2016,08,23,09,03,22.20
2016,08,23,09,04,17.00
2016,08,23,09,05,15.40
2016,08,23,09,06,16.00
2016,08,23,09,07,18.20
2016,08,23,09,08,17.80
2016,08,23,09,09,22.20
2016,08,23,09,10,18.20
2016,08,23,09,11,20.70
2016,08,23,09,12,19.80
2016,08,23,09,13,19.80
2016,08,23,09,14,14.20
2016,08,23,09,15,17.60
2016,08,23,09,16,18.70
2016,08,23,09,17,16.60
2016,08,23,09,18,15.60
2016,08,23,09,19,16.30
2016,08,23,09,20,14.20
2016,08,23,09,21,18.70
2016,08,23,09,22,15.00
2016,08,23,09,23,14.80
2016,08,23,09,24,13.60
2016,08,23,09,25,17.80
2016,08,23,09,26,14.80
2016,08,23,09,27,14.80
2016,08,23,09,28,12.40
2016,08,23,09,29,10.60
2016,08,23,09,30,16.60
2016,08,23,09,31,13.50
2016,08,23,09,32,13.40
2016,08,23,09,33,13.90
2016,08,23,09,34,14.10
2016,08,23,09,35,10.00
2016,08,23,09,36,12.10
2016,08,23,09,37,9.10
2016,08,23,09,38,10.60
2016,08,23,09,39,8.70
2016,08,23,09,40,7.90
2016,08,23,09,41,13.20
2016,08,23,09,42,12.30
2016,08,23,09,43,14.00
2016,08,23,09,44,10.00
2016,08,23,09,45,12.60
2016,08,23,09,46,14.00
2016,08,23,09,47,13.00
2016,08,23,09,48,6.70
2016,08,23,09,49,5.30
2016,08,23,09,50,8.60
2016,08,23,09,51,10.40
2016,08,23,09,52,8.60
2016,08,23,09,53,11.60
2016,08,23,09,54,13.20
2016,08,23,09,55,13.70
2016,08,23,09,56,12.00
2016,08,23,09,57,12.00
2016,08,23,09,58,10.10
2016,08,23,09,59,6.30
2016,08,23,10,00,9.40
2016,08,23,10,01,11.40
2016,08,23,10,02,15.70
2016,08,23,10,03,14.70
2016,08,23,10,04,14.50
2016,08,23,10,05,12.20
2016,08,23,10,06,11.40
2016,08,23,10,07,10.10
2016,08,23,10,08,11.80
2016,08,23,10,09,13.00
2016,08,23,10,10,11.70
2016,08,23,10,11,11.70
2016,08,23,10,12,13.50
2016,08,23,10,13,12.60
2016,08,23,10,14,15.70
2016,08,23,10,15,9.60
2016,08,23,10,16,11.70
2016,08,23,10,17,15.20
2016,08,23,10,18,10.20
2016,08,23,10,19,16.60
2016,08,23,10,20,20.10
2016,08,23,10,21,18.00
2016,08,23,10,22,18.70
2016,08,23,10,23,15.30
2016,08,23,10,24,15.60
2016,08,23,10,25,17.40
2016,08,23,10,26,11.90
2016,08,23,10,27,15.30
2016,08,23,10,28,13.40
2016,08,23,10,29,10.30
2016,08,23,10,30,16.30
2016,08,23,10,31,10.60
2016,08,23,10,32,8.80
2016,08,23,10,33,12.40
2016,08,23,10,34,14.30
2016,08,23,10,35,15.90
2016,08,23,10,36,10.90
2016,08,23,10,37,10.50
2016,08,23,10,38,13.40
2016,08,23,10,39,12.60
2016,08,23,10,40,11.60
2016,08,23,10,41,13.90
2016,08,23,10,42,14.50
2016,08,23,10,43,13.10
2016,08,23,10,44,9.70
2016,08,23,10,45,12.40
2016,08,23,10,46,12.30
2016,08,23,10,47,11.00
2016,08,23,10,48,12.50
2016,08,23,10,49,11.50
2016,08,23,10,50,11.50
2016,08,23,10,51,14.10
2016,08,23,10,52,14.40
2016,08,23,10,53,9.80
2016,08,23,10,54,10.70
2016,08,23,10,55,14.40
2016,08,23,10,56,11.30
2016,08,23,10,57,13.40
2016,08,23,10,58,13.20
2016,08,23,10,59,15.30
2016,08,23,11,00,9.70
2016,08,23,11,01,10.70
2016,08,23,11,02,11.40
2016,08,23,11,03,12.60
2016,08,23,11,04,12.50
2016,08,23,11,05,9.40
2016,08,23,11,06,7.80
2016,08,23,11,07,12.70
2016,08,23,11,08,7.10
2016,08,23,11,09,10.60
2016,08,23,11,10,8.40
2016,08,23,11,11,10.20
2016,08,23,11,12,7.80
2016,08,23,11,13,9.50
2016,08,23,11,14,9.20
2016,08,23,11,15,8.20
2016,08,23,11,16,10.80
2016,08,23,11,17,8.90
2016,08,23,11,18,10.00
2016,08,23,11,19,12.00
2016,08,23,11,20,13.70
2016,08,23,11,21,15.10
2016,08,23,11,22,12.00
2016,08,23,11,23,13.80
2016,08,23,11,24,13.70
2016,08,23,11,25,13.50
2016,08,23,11,26,15.60
2016,08,23,11,27,18.60
2016,08,23,11,28,14.10
2016,08,23,11,29,13.70
2016,08,23,11,30,15.90
2016,08,23,11,31,14.40
2016,08,23,11,32,15.60
2016,08,23,11,33,13.90
2016,08,23,11,34,13.50
2016,08,23,11,35,14.70
2016,08,23,11,36,15.40
2016,08,23,11,37,13.20
2016,08,23,11,38,17.30
2016,08,23,11,39,14.50
2016,08,23,11,40,9.50
2016,08,23,11,41,9.40
2016,08,23,11,42,10.40
2016,08,23,11,43,14.50
2016,08,23,11,44,11.90
2016,08,23,11,45,13.60
2016,08,23,11,46,10.20
2016,08,23,11,47,9.20
2016,08,23,11,48,14.50
2016,08,23,11,49,15.40
2016,08,23,11,50,12.30
2016,08,23,11,51,11.90
2016,08,23,11,52,10.90
2016,08,23,11,53,14.70
2016,08,23,11,54,15.80
2016,08,23,11,55,11.50
2016,08,23,11,56,15.60
2016,08,23,11,57,15.10
2016,08,23,11,58,12.50
2016,08,23,11,59,8.50
2016,08,23,12,00,12.20
2016,08,23,12,01,12.90
2016,08,23,12,02,10.20
2016,08,23,12,03,8.20
2016,08,23,12,04,13.00
2016,08,23,12,05,14.50
2016,08,23,12,06,10.90
2016,08,23,12,07,7.70
2016,08,23,12,08,11.60
2016,08,23,12,09,11.60
2016,08,23,12,10,12.20
2016,08,23,12,11,12.90
2016,08,23,12,12,10.20
2016,08,23,12,13,10.60
2016,08,23,12,14,12.60
2016,08,23,12,15,9.40
2016,08,23,12,16,12.60
2016,08,23,12,17,12.10
2016,08,23,12,18,13.90
2016,08,23,12,19,11.00
2016,08,23,12,20,17.10
2016,08,23,12,21,12.50
2016,08,23,12,22,13.50
2016,08,23,12,23,13.20
2016,08,23,12,24,12.60
2016,08,23,12,25,9.70
2016,08,23,12,26,12.70
2016,08,23,12,27,7.40
2016,08,23,12,28,14.70
2016,08,23,12,29,12.20
2016,08,23,12,30,11.20
2016,08,23,12,31,13.10
2016,08,23,12,32,11.30
2016,08,23,12,33,10.00
2016,08,23,12,34,9.70
2016,08,23,12,35,10.00
2016,08,23,12,36,11.50
2016,08,23,12,37,14.60
2016,08,23,12,38,13.20
2016,08,23,12,39,13.60
2016,08,23,12,40,10.70
2016,08,23,12,41,10.60
2016,08,23,12,42,7.00
2016,08,23,12,43,13.50
2016,08,23,12,44,10.00
2016,08,23,12,45,11.20
2016,08,23,12,46,9.70
2016,08,23,12,47,11.40
2016,08,23,12,48,13.90
2016,08,23,12,49,11.00
2016,08,23,12,50,12.50
2016,08,23,12,51,10.00
2016,08,23,12,52,15.10
2016,08,23,12,53,14.70
2016,08,23,12,54,12.00
2016,08,23,12,55,13.10
2016,08,23,12,56,10.70
2016,08,23,12,57,11.20
2016,08,23,12,58,9.20
2016,08,23,12,59,11.10
2016,08,23,13,00,13.30
2016,08,23,13,01,7.00
2016,08,23,13,02,13.20
2016,08,23,13,03,10.60
2016,08,23,13,04,9.30
2016,08,23,13,05,10.90
2016,08,23,13,06,11.80
2016,08,23,13,07,6.50
2016,08,23,13,08,5.10
2016,08,23,13,09,12.20
2016,08,23,13,10,10.20
2016,08,23,13,11,12.00
2016,08,23,13,12,8.70
2016,08,23,13,13,10.40
2016,08,23,13,14,7.90
2016,08,23,13,15,8.00
2016,08,23,13,16,7.90
2016,08,23,13,17,9.40
2016,08,23,13,18,10.10
2016,08,23,13,19,12.70
2016,08,23,13,20,9.10
2016,08,23,13,21,11.10
2016,08,23,13,22,9.70
2016,08,23,13,23,7.90
2016,08,23,13,24,12.60
2016,08,23,13,25,12.50
2016,08,23,13,26,11.40
2016,08,23,13,27,8.20
2016,08,23,13,28,8.60
2016,08,23,13,29,9.20
2016,08,23,13,30,9.50
2016,08,23,13,31,11.80
2016,08,23,13,32,11.80
2016,08,23,13,33,13.50
2016,08,23,13,34,11.70
2016,08,23,13,35,11.00
2016,08,23,13,36,13.70
2016,08,23,13,37,12.90
2016,08,23,13,38,8.20
2016,08,23,13,39,13.30
2016,08,23,13,40,8.70
2016,08,23,13,41,6.80
2016,08,23,13,42,13.40
2016,08,23,13,43,14.20
2016,08,23,13,44,14.10
2016,08,23,13,45,10.00
2016,08,23,13,46,10.60
2016,08,23,13,47,9.10
2016,08,23,13,48,8.50
2016,08,23,13,49,12.10
2016,08,23,13,50,12.60
2016,08,23,13,51,13.70
2016,08,23,13,52,11.40
2016,08,23,13,53,8.50
2016,08,23,13,54,11.80
2016,08,23,13,55,12.20
2016,08,23,13,56,12.60
2016,08,23,13,57,12.40
2016,08,23,13,58,9.00
2016,08,23,13,59,12.40
2016,08,23,14,00,8.70
2016,08,23,14,01,10.00
2016,08,23,14,02,7.60
2016,08,23,14,03,6.90
2016,08,23,14,04,6.60
2016,08,23,14,05,11.90
2016,08,23,14,06,11.90
2016,08,23,14,07,9.60
2016,08,23,14,08,10.50
2016,08,23,14,09,8.80
2016,08,23,14,10,12.60
2016,08,23,14,11,10.30
2016,08,23,14,12,5.80
2016,08,23,14,13,4.80
2016,08,23,14,14,9.90
2016,08,23,14,15,10.80
2016,08,23,14,16,8.50
2016,08,23,14,17,10.30
2016,08,23,14,18,7.60
2016,08,23,14,19,8.40
2016,08,23,14,20,7.30
2016,08,23,14,21,9.10
2016,08,23,14,22,12.70
2016,08,23,14,23,11.00
2016,08,23,14,24,9.10
2016,08,23,14,25,2.30
2016,08,23,14,26,6.60
2016,08,23,14,27,9.00
2016,08,23,14,28,4.80
2016,08,23,14,29,5.00
2016,08,23,14,30,10.90
2016,08,23,14,31,9.40
2016,08,23,14,32,7.50
2016,08,23,14,33,9.90
2016,08,23,14,34,13.80
2016,08,23,14,35,10.40
2016,08,23,14,36,11.00
2016,08,23,14,37,10.20
2016,08,23,14,38,12.60
2016,08,23,14,39,15.80
2016,08,23,14,40,14.80
2016,08,23,14,41,14.50
2016,08,23,14,42,12.50
2016,08,23,14,43,10.20
2016,08,23,14,44,15.70
2016,08,23,14,45,11.70
2016,08,23,14,46,12.60
2016,08,23,14,47,5.60
2016,08,23,14,48,4.80
2016,08,23,14,49,11.00
2016,08,23,14,50,8.90
2016,08,23,14,51,10.90
2016,08,23,14,52,13.10
2016,08,23,14,53,12.00
2016,08,23,14,54,10.10
2016,08,23,14,55,11.60
2016,08,23,14,56,15.50
2016,08,23,14,57,8.90
2016,08,23,14,58,12.00
2016,08,23,14,59,9.60
2016,08,23,15,00,7.90
2016,08,23,15,01,11.30
2016,08,23,15,02,12.50
2016,08,23,15,03,11.40
2016,08,23,15,04,12.10
2016,08,23,15,05,12.30
2016,08,23,15,06,15.60
2016,08,23,15,07,11.00
2016,08,23,15,08,8.00
2016,08,23,15,09,10.10
2016,08,23,15,10,11.60
2016,08,23,15,11,12.10
2016,08,23,15,12,13.00
2016,08,23,15,13,18.40
2016,08,23,15,14,16.40
2016,08,23,15,15,11.10
2016,08,23,15,16,13.50
2016,08,23,15,17,12.50
2016,08,23,15,18,15.30
2016,08,23,15,19,11.30
2016,08,23,15,20,14.80
2016,08,23,15,21,10.90
2016,08,23,15,22,13.40
2016,08,23,15,23,12.20
2016,08,23,15,24,13.40
2016,08,23,15,25,10.00
2016,08,23,15,26,11.30
2016,08,23,15,27,13.50
2016,08,23,15,28,18.20
2016,08,23,15,29,16.90
2016,08,23,15,30,17.60
2016,08,23,15,31,17.80
2016,08,23,15,32,13.80
2016,08,23,15,33,19.00
2016,08,23,15,34,16.60
2016,08,23,15,35,19.60
2016,08,23,15,36,16.00
2016,08,23,15,37,19.00
2016,08,23,15,38,18.20
2016,08,23,15,39,16.10
2016,08,23,15,40,10.40
2016,08,23,15,41,16.30
2016,08,23,15,42,13.70
2016,08,23,15,43,11.30
2016,08,23,15,44,12.50
2016,08,23,15,45,11.10
2016,08,23,15,46,12.30
2016,08,23,15,47,18.50
2016,08,23,15,48,15.10
2016,08,23,15,49,14.40
2016,08,23,15,50,17.50
2016,08,23,15,51,14.00
2016,08,23,15,52,15.70
2016,08,23,15,53,12.80
2016,08,23,15,54,15.30
2016,08,23,15,55,13.10
2016,08,23,15,56,13.50
2016,08,23,15,57,11.90
2016,08,23,15,58,19.30
2016,08,23,15,59,15.10
2016,08,23,16,00,19.00
2016,08,23,16,01,14.80
2016,08,23,16,02,14.30
2016,08,23,16,03,11.50
2016,08,23,16,04,8.30
2016,08,23,16,05,11.00
2016,08,23,16,06,15.90
2016,08,23,16,07,13.70
2016,08,23,16,08,13.80
2016,08,23,16,09,9.40
2016,08,23,16,10,9.00
2016,08,23,16,11,15.00
2016,08,23,16,12,9.60
2016,08,23,16,13,11.00
2016,08,23,16,14,14.30
2016,08,23,16,15,11.60
2016,08,23,16,16,9.10
2016,08,23,16,17,7.10
2016,08,23,16,18,5.40
2016,08,23,16,19,7.20
2016,08,23,16,20,11.00
2016,08,23,16,21,8.60
2016,08,23,16,22,10.20
2016,08,23,16,23,9.70
2016,08,23,16,24,11.10
2016,08,23,16,25,6.80
2016,08,23,16,26,8.50
2016,08,23,16,27,9.50
2016,08,23,16,28,8.40
2016,08,23,16,29,9.70
2016,08,23,16,30,12.10
2016,08,23,16,31,11.40
2016,08,23,16,32,11.60
2016,08,23,16,33,10.90
2016,08,23,16,34,13.40
2016,08,23,16,35,10.30
2016,08,23,16,36,14.80
2016,08,23,16,37,12.10
2016,08,23,16,38,14.50
2016,08,23,16,39,9.70
2016,08,23,16,40,9.20
2016,08,23,16,41,8.30
2016,08,23,16,42,11.00
2016,08,23,16,43,9.90
2016,08,23,16,44,16.30
2016,08,23,16,45,14.30
2016,08,23,16,46,10.70
2016,08,23,16,47,9.30
2016,08,23,16,48,8.60
2016,08,23,16,49,13.50
2016,08,23,16,50,12.50
2016,08,23,16,51,17.30
2016,08,23,16,52,15.00
2016,08,23,16,53,15.80
2016,08,23,16,54,16.60
2016,08,23,16,55,16.90
2016,08,23,16,56,17.20
2016,08,23,16,57,14.20
2016,08,23,16,58,12.00
2016,08,23,16,59,13.80
2016,08,23,17,00,15.50
2016,08,23,17,01,14.80
2016,08,23,17,02,13.20
2016,08,23,17,03,12.50
2016,08,23,17,04,13.10
2016,08,23,17,05,11.00
2016,08,23,17,06,16.50
2016,08,23,17,07,21.50
2016,08,23,17,08,13.50
2016,08,23,17,09,12.80
2016,08,23,17,10,15.30
2016,08,23,17,11,13.90
2016,08,23,17,12,12.80
2016,08,23,17,13,13.50
2016,08,23,17,14,15.10
2016,08,23,17,15,16.20
2016,08,23,17,16,13.50
2016,08,23,17,17,12.80
2016,08,23,17,18,7.20
2016,08,23,17,19,12.10
2016,08,23,17,20,7.30
2016,08,23,17,21,5.70
2016,08,23,17,22,9.90
2016,08,23,17,23,9.20
2016,08,23,17,24,6.70
2016,08,23,17,25,12.20
2016,08,23,17,26,14.80
2016,08,23,17,27,18.20
2016,08,23,17,28,16.00
2016,08,23,17,29,14.60
2016,08,23,17,30,15.50
2016,08,23,17,31,18.60
2016,08,23,17,32,19.00
2016,08,23,17,33,19.10
2016,08,23,17,34,20.30
2016,08,23,17,35,16.60
2016,08,23,17,36,14.70
2016,08,23,17,37,12.50
2016,08,23,17,38,16.10
2016,08,23,17,39,16.60
2016,08,23,17,40,12.30
2016,08,23,17,41,13.10
2016,08,23,17,42,10.10